Regional Weather Roundup
Issued by NWS Green Bay, WI

Home | Current Version | Previous Version | Text Only | Print | Product List | Glossary On
Versions: 1 2 3 4 5 6 7 8 9 10 11 12 13 14 15 16 17 18 19 20 21 22 23 24 25 26 27 28 29 30 31 32 33 34 35 36 37 38 39 40 41 42 43 44 45 46 47 48 49 50
000
ASUS43 KGRB 310210
RWRGRB

NORTH-CENTRAL AND NORTHEAST WISCONSIN REGIONAL WEATHER ROUNDUP
NATIONAL WEATHER SERVICE GREEN BAY WI
900 PM CDT SAT AUG 30 2014

WIZ005-009-010>012-018-019-310300-
NORTH CENTRAL WISCONSIN

CITY           SKY/WX    TMP DP  RH WIND       PRES   REMARKS
IRONWOOD       NOT AVBL
MANITOWISH WTR CLOUDY    58  57  97 CALM      29.92R
ARBOR VITAE    CLOUDY    59  57  91 N5        29.92R
EAGLE RIVER    CLOUDY    57  57 100 N6        29.92R
LAND O LAKES   CLOUDY    58  56  94 CALM      29.93R
RHINELANDER    CLOUDY    58  56  93 N3        29.93R
PHILLIPS       CLOUDY    60  57  91 N3        29.92R
ANTIGO         CLOUDY    61  58  91 N6        29.91R
TOMAHAWK       CLOUDY    59  56  91 CALM      29.92R
MERRILL        CLOUDY    62  60  92 N3        29.91R
$$

WIZ013-073-310300-
NORTHEAST WISCONSIN

CITY           SKY/WX    TMP DP  RH WIND       PRES   REMARKS
IRON MOUNTAIN  CLOUDY    61  57  87 NW9       29.87R
MARINETTE      CLOUDY    63  59  88 NW6       29.86R
OCONTO         CLOUDY    64  63  96 N7        29.86R
$$

WIZ017-030-035>037-045-310300-
CENTRAL WISCONSIN

CITY           SKY/WX    TMP DP  RH WIND       PRES   REMARKS
MEDFORD        MOCLDY    60  58  93 NE5       29.91R
WAUSAU         CLOUDY    64  59  83 N7        29.89R
MOSINEE        CLOUDY    64  63  94 N6        29.91R
MARSHFIELD     CLOUDY    65  60  84 N7        29.90R
WISC RAPIDS    PTCLDY    66  62  87 N5        29.90R
STEVENS POINT  PTCLDY    64  60  88 CALM      29.90R
WAUPACA        CLOUDY    69  65  88 N5        29.88R
SHAWANO        CLOUDY    68  63  83 NW5       29.89R
CLINTONVILLE   CLOUDY    66  63  88 N6        29.88R
$$

WIZ038-039-048-051-310300-
FOX VALLEY

CITY           SKY/WX    TMP DP  RH WIND       PRES   REMARKS
NWS GREEN BAY  CLOUDY    68  66  93 N7        29.87R
APPLETON       MOCLDY    68  64  88 N12       29.87R
OSHKOSH        MOCLDY    69  66  90 NW5       29.87R
FOND DU LAC    MOCLDY    70  67  90 CALM      29.87R
$$

WIZ022-050-052-310300-
EAST CENTRAL WISCONSIN

CITY           SKY/WX    TMP DP  RH WIND       PRES   REMARKS
STURGEON BAY   CLOUDY    64  61  88 N12       29.87R
MANITOWOC      CLEAR     69  66  90 NW6       29.86R
SHEBOYGAN      CLEAR     66  64  93 SW6       29.87R
$$

LMZ563-521-522-541>543-310300-
LAKESHORE

STATION/POSITION TIME  TEMP    WIND        PRES    VSBY  WAVE
                       AIR SEA DIR/SP/G                  HT/PER
                 (UTC) (F)     (DEG/KT/KT) (MB)    (MI)  (FT/S)
SHEBOYGAN LKSHOR 0200   71 50  250/  5/  5 1011.2R
KEWAUNEE LKSHORE 0200   68     310/  3/  7 1010.1R
ALGOMA MARINA    0100          340/ 10/ 14   N/A
NORTHPORT PIER   0200   65     310/ 11/ 17 1010.5R
N MID LAKE BUOY  0200   63 65  310/ 16/ 17 1009.4R         4/ 4
S GREEN BAY BUOY 0200   68     VRB 14/ 17  1012.3R
SISTER BAY LKSHO 0100   65     350/ 17/ 20   N/A
CHAMBERS ISLAND  0200   65     310/  9/ 15 1010.8R
MENOMINEE LKSHOR 0200   65     310/  7/ 14 1011.6R
$$



USA.gov is the U.S. government's official web portal to all federal, state and local government web resources and services.